| time (UTC) | temp F | wind direction | speed MPH | gust MPH | rain 1hr in | rain 24hr in | rain mn in | humidity % | barometer mb |
| 20260831094005 | 57 | 192 | 0.0 | 0.0 | 0.00 | 0.00 | 0.00 | 83 | 1012.5 |
| 20260831093505 | 57 | 192 | 0.0 | 0.0 | 0.00 | 0.00 | 0.00 | 83 | 1012.5 |
| 20260831093005 | 57 | 192 | 0.0 | 0.0 | 0.00 | 0.00 | 0.00 | 83 | 1012.5 |
| 20260831092005 | 57 | 192 | 0.0 | 0.0 | 0.00 | 0.00 | 0.00 | 82 | 1012.5 |
| 20260831091505 | 57 | 192 | 0.0 | 0.0 | 0.00 | 0.00 | 0.00 | 82 | 1012.5 |
| 20260831090005 | 57 | 192 | 0.0 | 0.0 | 0.00 | 0.00 | 0.00 | 81 | 1011.5 |
| 20260831085505 | 57 | 170 | 0.0 | 0.0 | 0.00 | 0.00 | 0.00 | 81 | 1012.5 |
| 20260831085006 | 58 | 170 | 0.0 | 0.0 | 0.00 | 0.00 | 0.00 | 81 | 1012.5 |
| 20260831084505 | 58 | 170 | 0.0 | 0.0 | 0.00 | 0.00 | 0.00 | 80 | 1012.5 |
| 20260831084005 | 58 | 170 | 0.0 | 0.0 | 0.00 | 0.00 | 0.00 | 80 | 1012.5 |
| 20260831083505 | 58 | 85 | 0.0 | 0.0 | 0.00 | 0.00 | 0.00 | 80 | 1012.5 |
| 20260831082505 | 58 | 238 | 0.0 | 0.0 | 0.00 | 0.00 | 0.00 | 79 | 1013.5 |
| 20260831082005 | 58 | 238 | 0.0 | 0.0 | 0.00 | 0.00 | 0.00 | 79 | 1013.5 |
| 20260831081505 | 58 | 238 | 0.0 | 0.0 | 0.00 | 0.00 | 0.00 | 79 | 1013.5 |
| 20260831081005 | 58 | 238 | 0.0 | 0.0 | 0.00 | 0.00 | 0.00 | 79 | 1013.5 |
| 20260831080505 | 58 | 238 | 0.0 | 0.0 | 0.00 | 0.00 | 0.00 | 78 | 1013.5 |
| 20260831080005 | 58 | 238 | 0.0 | 0.0 | 0.00 | 0.00 | 0.00 | 78 | 1013.5 |
| 20260831075505 | 58 | 238 | 0.0 | 0.0 | 0.00 | 0.00 | 0.00 | 78 | 1013.5 |
| 20260831075005 | 58 | 238 | 0.0 | 0.0 | 0.00 | 0.00 | 0.00 | 78 | 1013.5 |
| 20260831074505 | 58 | 238 | 0.0 | 0.0 | 0.00 | 0.00 | 0.00 | 78 | 1013.5 |
| 20260831074006 | 59 | 238 | 0.0 | 0.0 | 0.00 | 0.00 | 0.00 | 77 | 1013.5 |
| 20260831073506 | 59 | 238 | 0.0 | 0.0 | 0.00 | 0.00 | 0.00 | 77 | 1013.5 |
| 20260831073005 | 59 | 238 | 0.0 | 0.0 | 0.00 | 0.00 | 0.00 | 77 | 1013.5 |
| 20260831072505 | 59 | 238 | 0.0 | 0.0 | 0.00 | 0.00 | 0.00 | 76 | 1014.5 |
| 20260831072005 | 59 | 238 | 0.0 | 0.0 | 0.00 | 0.00 | 0.00 | 75 | 1014.5 |
| 20260831071505 | 59 | 238 | 0.0 | 0.0 | 0.00 | 0.00 | 0.00 | 75 | 1014.5 |
| 20260831071006 | 59 | 238 | 0.0 | 0.0 | 0.00 | 0.00 | 0.00 | 75 | 1014.5 |
| 20260831065505 | 59 | 238 | 0.0 | 0.0 | 0.00 | 0.00 | 0.00 | 74 | 1014.5 |
| 20260831065005 | 60 | 238 | 0.0 | 0.0 | 0.00 | 0.00 | 0.00 | 74 | 1014.5 |
| 20260831064005 | 60 | 170 | 0.0 | 0.0 | 0.00 | 0.00 | 0.00 | 74 | 1014.5 |
| 20260831063505 | 60 | 201 | 0.0 | 0.0 | 0.00 | 0.00 | 0.00 | 73 | 1014.5 |
| 20260831063005 | 60 | 181 | 0.0 | 0.0 | 0.00 | 0.00 | 0.00 | 73 | 1014.5 |
| 20260831062505 | 60 | 92 | 0.0 | 0.0 | 0.00 | 0.00 | 0.00 | 73 | 1014.5 |
| 20260831061505 | 60 | 125 | 0.0 | 0.0 | 0.00 | 0.00 | 0.00 | 72 | 1014.5 |
| 20260831055505 | 61 | 305 | 0.0 | 0.0 | 0.00 | 0.00 | 0.00 | 71 | 1013.5 |
| 20260831055005 | 61 | 56 | 0.0 | 0.0 | 0.00 | 0.00 | 0.00 | 71 | 1013.5 |
| 20260831054505 | 61 | 141 | 0.0 | 0.0 | 0.00 | 0.00 | 0.00 | 70 | 1013.5 |
| 20260831054005 | 61 | 211 | 0.0 | 0.0 | 0.00 | 0.00 | 0.00 | 70 | 1014.5 |
| 20260831053005 | 61 | 102 | 0.0 | 0.0 | 0.00 | 0.00 | 0.00 | 69 | 1014.5 |
| 20260831052505 | 61 | 120 | 0.0 | 0.0 | 0.00 | 0.00 | 0.00 | 69 | 1014.5 |
| 20260831052006 | 62 | 43 | 0.0 | 0.0 | 0.00 | 0.00 | 0.00 | 68 | 1014.5 |
| 20260831051505 | 62 | 215 | 0.0 | 6.0 | 0.00 | 0.00 | 0.00 | 68 | 1014.5 |
| 20260831051005 | 62 | 282 | 0.0 | 6.0 | 0.00 | 0.00 | 0.00 | 68 | 1014.5 |
| 20260831050005 | 62 | 344 | 0.0 | 0.0 | 0.00 | 0.00 | 0.00 | 67 | 1014.5 |
| 20260831045504 | 62 | 144 | 0.0 | 0.0 | 0.00 | 0.00 | 0.00 | 67 | 1014.5 |
| 20260831045005 | 62 | 35 | 0.0 | 0.0 | 0.00 | 0.00 | 0.00 | 67 | 1014.5 |
| 20260831044504 | 62 | 184 | 0.0 | 6.0 | 0.00 | 0.00 | 0.00 | 67 | 1014.5 |
| 20260831043505 | 62 | 215 | 0.0 | 0.0 | 0.00 | 0.00 | 0.00 | 66 | 1014.5 |
| 20260831043005 | 62 | 101 | 0.0 | 0.0 | 0.00 | 0.00 | 0.00 | 66 | 1014.5 |
| 20260831042505 | 62 | 260 | 0.0 | 0.0 | 0.00 | 0.00 | 0.00 | 65 | 1014.5 |
| 20260831041504 | 63 | 269 | 0.0 | 0.0 | 0.00 | 0.00 | 0.00 | 64 | 1014.5 |
| 20260831041005 | 63 | 282 | 0.0 | 0.0 | 0.00 | 0.00 | 0.00 | 63 | 1014.5 |
| 20260831040504 | 63 | 282 | 0.0 | 0.0 | 0.00 | 0.00 | 0.00 | 63 | 1014.5 |
| 20260831040005 | 63 | 305 | 0.0 | 0.0 | 0.00 | 0.00 | 0.00 | 63 | 1014.5 |
| 20260831034505 | 64 | 192 | 0.0 | 0.0 | 0.00 | 0.00 | 0.00 | 62 | 1014.5 |
| 20260831034004 | 64 | 215 | 0.0 | 0.0 | 0.00 | 0.00 | 0.00 | 61 | 1015.5 |
| 20260831033505 | 64 | 269 | 0.0 | 3.0 | 0.00 | 0.00 | 0.00 | 61 | 1015.5 |
| 20260831033004 | 64 | 215 | 0.0 | 3.0 | 0.00 | 0.00 | 0.00 | 60 | 1015.5 |
| 20260831032505 | 64 | 284 | 0.0 | 3.0 | 0.00 | 0.00 | 0.00 | 60 | 1015.5 |
| 20260831032004 | 64 | 305 | 0.0 | 0.0 | 0.00 | 0.00 | 0.00 | 59 | 1015.5 |
| 20260831031504 | 64 | 192 | 0.0 | 0.0 | 0.00 | 0.00 | 0.00 | 59 | 1015.5 |
| 20260831031004 | 65 | 282 | 0.0 | 0.0 | 0.00 | 0.00 | 0.00 | 58 | 1015.5 |
| 20260831030504 | 65 | 35 | 0.0 | 0.0 | 0.00 | 0.00 | 0.00 | 58 | 1015.5 |
| 20260831030004 | 65 | 287 | 0.0 | 0.0 | 0.00 | 0.00 | 0.00 | 57 | 1015.5 |
| 20260831025504 | 65 | 260 | 0.0 | 0.0 | 0.00 | 0.00 | 0.00 | 57 | 1015.5 |
| 20260831025005 | 65 | 260 | 0.0 | 0.0 | 0.00 | 0.00 | 0.00 | 56 | 1015.5 |
| 20260831024504 | 66 | 260 | 0.0 | 0.0 | 0.00 | 0.00 | 0.00 | 56 | 1015.5 |
| 20260831024004 | 66 | 185 | 0.0 | 0.0 | 0.00 | 0.00 | 0.00 | 55 | 1015.5 |
| 20260831023504 | 66 | 192 | 0.0 | 0.0 | 0.00 | 0.00 | 0.00 | 55 | 1015.5 |
| 20260831023006 | 66 | 305 | 0.0 | 5.0 | 0.00 | 0.00 | 0.00 | 54 | 1015.5 |
| 20260831022505 | 66 | 236 | 0.0 | 5.0 | 0.00 | 0.00 | 0.00 | 54 | 1015.5 |
| 20260831022004 | 67 | 173 | 0.0 | 0.0 | 0.00 | 0.00 | 0.00 | 54 | 1015.5 |
| 20260831021504 | 67 | 119 | 0.0 | 0.0 | 0.00 | 0.00 | 0.00 | 53 | 1015.5 |
| 20260831021005 | 67 | 192 | 0.0 | 0.0 | 0.00 | 0.00 | 0.00 | 53 | 1015.5 |
| 20260831020504 | 67 | 287 | 0.0 | 15.0 | 0.00 | 0.00 | 0.00 | 52 | 1015.5 |
| 20260831015504 | 68 | 352 | 0.0 | 2.0 | 0.00 | 0.00 | 0.00 | 52 | 1015.5 |
| 20260831015004 | 68 | 81 | 0.0 | 6.0 | 0.00 | 0.00 | 0.00 | 51 | 1015.5 |
| 20260831014504 | 68 | 10 | 0.0 | 6.0 | 0.00 | 0.00 | 0.00 | 51 | 1015.5 |
| 20260831014004 | 68 | 215 | 0.0 | 5.0 | 0.00 | 0.00 | 0.00 | 51 | 1016.5 |
| 20260831013504 | 68 | 81 | 0.0 | 5.0 | 0.00 | 0.00 | 0.00 | 50 | 1016.5 |
| 20260831013004 | 69 | 199 | 1.0 | 5.0 | 0.00 | 0.00 | 0.00 | 50 | 1016.5 |
| 20260831012005 | 69 | 43 | 1.0 | 5.0 | 0.00 | 0.00 | 0.00 | 50 | 1016.5 |
| 20260831011504 | 69 | 38 | 0.0 | 6.0 | 0.00 | 0.00 | 0.00 | 50 | 1016.5 |
| 20260831011005 | 69 | 196 | 0.0 | 16.0 | 0.00 | 0.00 | 0.00 | 50 | 1016.5 |
| 20260831010504 | 69 | 93 | 1.0 | 16.0 | 0.00 | 0.00 | 0.00 | 49 | 1016.5 |
| 20260831010005 | 69 | 44 | 1.0 | 16.0 | 0.00 | 0.00 | 0.00 | 49 | 1016.5 |
| 20260831005004 | 69 | 78 | 0.0 | 12.0 | 0.00 | 0.00 | 0.00 | 49 | 1016.5 |
| 20260831003504 | 70 | 89 | 1.0 | 10.0 | 0.00 | 0.00 | 0.00 | 48 | 1016.5 |
| 20260831003005 | 70 | 106 | 0.0 | 10.0 | 0.00 | 0.00 | 0.00 | 48 | 1016.5 |
| 20260831002504 | 70 | 86 | 3.0 | 12.0 | 0.00 | 0.00 | 0.00 | 48 | 1016.5 |
| 20260831002004 | 71 | 25 | 2.0 | 12.0 | 0.00 | 0.00 | 0.00 | 48 | 1016.5 |
| 20260831001505 | 71 | 59 | 2.0 | 6.0 | 0.00 | 0.00 | 0.00 | 48 | 1016.5 |
| 20260831001004 | 71 | 248 | 0.0 | 7.0 | 0.00 | 0.00 | 0.00 | 48 | 1016.5 |
| 20260831000004 | 71 | 83 | 0.0 | 13.0 | 0.00 | 0.00 | 0.00 | 47 | 1016.5 |
| 20260830235504 | 71 | 156 | 5.0 | 13.0 | 0.00 | 0.00 | 0.00 | 47 | 1016.5 |
| 20260830234004 | 72 | 62 | 1.0 | 10.0 | 0.00 | 0.00 | 0.00 | 47 | 1015.5 |
| 20260830233504 | 72 | 30 | 1.0 | 14.0 | 0.00 | 0.00 | 0.00 | 47 | 1015.5 |
| 20260830232504 | 72 | 320 | 1.0 | 10.0 | 0.00 | 0.00 | 0.00 | 47 | 1016.5 |
| 20260830231504 | 72 | 311 | 0.0 | 10.0 | 0.00 | 0.00 | 0.00 | 48 | 1016.5 |
| 20260830231004 | 72 | 252 | 4.0 | 10.0 | 0.00 | 0.00 | 0.00 | 47 | 1016.5 |
| 20260830230504 | 72 | 279 | 3.0 | 10.0 | 0.00 | 0.00 | 0.00 | 47 | 1016.5 |
| 20260830230005 | 72 | 176 | 1.0 | 8.0 | 0.00 | 0.00 | 0.00 | 48 | 1016.5 |
| 20260830225504 | 72 | 156 | 0.0 | 7.0 | 0.00 | 0.00 | 0.00 | 47 | 1017.5 |
| 20260830225004 | 72 | 228 | 2.0 | 10.0 | 0.00 | 0.00 | 0.00 | 48 | 1017.5 |
| 20260830224504 | 72 | 305 | 5.0 | 10.0 | 0.00 | 0.00 | 0.00 | 46 | 1017.5 |
| 20260830224004 | 72 | 87 | 3.0 | 9.0 | 0.00 | 0.00 | 0.00 | 48 | 1017.5 |
| 20260830223504 | 72 | 319 | 2.0 | 9.0 | 0.00 | 0.00 | 0.00 | 48 | 1017.5 |
| 20260830223004 | 73 | 219 | 2.0 | 14.0 | 0.00 | 0.00 | 0.00 | 48 | 1017.5 |
| 20260830222504 | 72 | 262 | 2.0 | 14.0 | 0.00 | 0.00 | 0.00 | 48 | 1017.5 |
| 20260830222004 | 72 | 256 | 2.0 | 21.0 | 0.00 | 0.00 | 0.00 | 49 | 1017.5 |
| 20260830221504 | 71 | 350 | 6.0 | 21.0 | 0.00 | 0.00 | 0.00 | 48 | 1017.5 |
| 20260830220504 | 71 | 284 | 2.0 | 9.0 | 0.00 | 0.00 | 0.00 | 48 | 1017.5 |
| 20260830220004 | 72 | 305 | 2.0 | 9.0 | 0.00 | 0.00 | 0.00 | 49 | 1017.5 |
| 20260830215004 | 71 | 300 | 4.0 | 15.0 | 0.00 | 0.00 | 0.00 | 50 | 1018.5 |
| 20260830214504 | 71 | 79 | 6.0 | 12.0 | 0.00 | 0.00 | 0.00 | 50 | 1018.5 |
| 20260830214004 | 71 | 87 | 5.0 | 12.0 | 0.00 | 0.00 | 0.00 | 50 | 1018.5 |
| 20260830213004 | 71 | 12 | 4.0 | 12.0 | 0.00 | 0.00 | 0.00 | 50 | 1018.5 |
| 20260830212504 | 71 | 6 | 4.0 | 13.0 | 0.00 | 0.00 | 0.00 | 51 | 1018.5 |
| 20260830212003 | 70 | 18 | 6.0 | 15.0 | 0.00 | 0.00 | 0.00 | 51 | 1018.5 |
| 20260830211504 | 70 | 174 | 3.0 | 17.0 | 0.00 | 0.00 | 0.00 | 52 | 1018.5 |
| 20260830211004 | 70 | 68 | 6.0 | 17.0 | 0.00 | 0.00 | 0.00 | 52 | 1018.5 |
| 20260830210503 | 70 | 259 | 3.0 | 15.0 | 0.00 | 0.00 | 0.00 | 51 | 1018.5 |
| 20260830210003 | 70 | 32 | 5.0 | 12.0 | 0.00 | 0.00 | 0.00 | 53 | 1018.5 |
| 20260830205504 | 69 | 43 | 5.0 | 9.0 | 0.00 | 0.00 | 0.00 | 53 | 1018.5 |
| 20260830205004 | 69 | 305 | 4.0 | 9.0 | 0.00 | 0.00 | 0.00 | 54 | 1018.5 |
| 20260830204504 | 68 | 258 | 1.0 | 8.0 | 0.00 | 0.00 | 0.00 | 55 | 1018.5 |
| 20260830204004 | 68 | 230 | 2.0 | 8.0 | 0.00 | 0.00 | 0.00 | 55 | 1017.5 |
| 20260830203504 | 68 | 51 | 3.0 | 9.0 | 0.00 | 0.00 | 0.00 | 56 | 1017.5 |
| 20260830202504 | 67 | 305 | 1.0 | 8.0 | 0.00 | 0.00 | 0.00 | 58 | 1018.5 |
| 20260830202006 | 67 | 35 | 1.0 | 8.0 | 0.00 | 0.00 | 0.00 | 58 | 1018.5 |
| 20260830201506 | 66 | 69 | 1.0 | 10.0 | 0.00 | 0.00 | 0.00 | 57 | 1018.5 |
| 20260830201006 | 66 | 65 | 5.0 | 15.0 | 0.00 | 0.00 | 0.00 | 56 | 1018.5 |
| 20260830200006 | 66 | 48 | 5.0 | 15.0 | 0.00 | 0.00 | 0.00 | 60 | 1018.5 |
| 20260830195506 | 65 | 258 | 3.0 | 10.0 | 0.00 | 0.00 | 0.00 | 60 | 1018.5 |
| 20260830195007 | 65 | 260 | 5.0 | 10.0 | 0.00 | 0.00 | 0.00 | 59 | 1018.5 |
| 20260830194506 | 66 | 260 | 6.0 | 10.0 | 0.00 | 0.00 | 0.00 | 59 | 1018.5 |
| 20260830194007 | 65 | 260 | 2.0 | 6.0 | 0.00 | 0.00 | 0.00 | 61 | 1018.5 |
| 20260830193507 | 66 | 260 | 0.0 | 10.0 | 0.00 | 0.00 | 0.00 | 62 | 1018.5 |
| 20260830193006 | 64 | 260 | 4.0 | 13.0 | 0.00 | 0.00 | 0.00 | 62 | 1018.5 |
| 20260830192507 | 65 | 260 | 1.0 | 13.0 | 0.00 | 0.00 | 0.00 | 62 | 1018.5 |
| 20260830192007 | 65 | 260 | 4.0 | 13.0 | 0.00 | 0.00 | 0.00 | 63 | 1018.5 |
| 20260830191508 | 64 | 260 | 2.0 | 10.0 | 0.00 | 0.00 | 0.00 | 64 | 1018.5 |
| 20260830185506 | 63 | 260 | 0.0 | 8.0 | 0.00 | 0.00 | 0.00 | 65 | 1019.5 |
| 20260830185006 | 63 | 260 | 0.0 | 8.0 | 0.00 | 0.00 | 0.00 | 65 | 1019.5 |
| 20260830184506 | 63 | 260 | 0.0 | 2.0 | 0.00 | 0.00 | 0.00 | 66 | 1019.5 |
| 20260830184007 | 63 | 260 | 0.0 | 9.0 | 0.00 | 0.00 | 0.00 | 66 | 1019.5 |
| 20260830183507 | 63 | 260 | 0.0 | 10.0 | 0.00 | 0.00 | 0.00 | 66 | 1019.5 |
| 20260830182506 | 63 | 260 | 2.0 | 12.0 | 0.00 | 0.00 | 0.00 | 70 | 1019.5 |
| 20260830182007 | 61 | 260 | 0.0 | 0.0 | 0.00 | 0.00 | 0.00 | 70 | 1019.5 |
| 20260830181506 | 61 | 260 | 0.0 | 0.0 | 0.00 | 0.00 | 0.00 | 70 | 1019.5 |
| 20260830181006 | 61 | 260 | 0.0 | 0.0 | 0.00 | 0.00 | 0.00 | 70 | 1019.5 |
| 20260830180507 | 61 | 260 | 0.0 | 0.0 | 0.00 | 0.00 | 0.00 | 71 | 1019.5 |
| 20260830180007 | 61 | 260 | 0.0 | 0.0 | 0.00 | 0.00 | 0.00 | 71 | 1019.5 |
| 20260830175506 | 61 | 260 | 0.0 | 0.0 | 0.00 | 0.00 | 0.00 | 71 | 1018.5 |
| 20260830174507 | 61 | 260 | 0.0 | 3.0 | 0.00 | 0.00 | 0.00 | 71 | 1018.5 |
| 20260830174007 | 61 | 260 | 0.0 | 9.0 | 0.00 | 0.00 | 0.00 | 72 | 1018.5 |
| 20260830173507 | 61 | 260 | 1.0 | 9.0 | 0.00 | 0.00 | 0.00 | 72 | 1018.5 |
| 20260830173006 | 61 | 260 | 0.0 | 0.0 | 0.00 | 0.00 | 0.00 | 72 | 1018.5 |
| 20260830172506 | 60 | 260 | 0.0 | 0.0 | 0.00 | 0.00 | 0.00 | 72 | 1018.5 |
| 20260830172006 | 61 | 260 | 0.0 | 0.0 | 0.00 | 0.00 | 0.00 | 72 | 1018.5 |
| 20260830171506 | 61 | 260 | 0.0 | 0.0 | 0.00 | 0.00 | 0.00 | 72 | 1018.5 |
| 20260830171006 | 61 | 260 | 0.0 | 6.0 | 0.00 | 0.00 | 0.00 | 72 | 1019.5 |
| 20260830165507 | 61 | 260 | 0.0 | 10.0 | 0.00 | 0.00 | 0.00 | 75 | 1018.5 |
| 20260830164506 | 61 | 260 | 3.0 | 13.0 | 0.00 | 0.00 | 0.00 | 77 | 1018.5 |
| 20260830164006 | 61 | 260 | 3.0 | 7.0 | 0.00 | 0.00 | 0.00 | 78 | 1018.5 |
| 20260830163507 | 61 | 260 | 1.0 | 7.0 | 0.00 | 0.00 | 0.00 | 79 | 1018.5 |
| 20260830163006 | 61 | 260 | 1.0 | 7.0 | 0.00 | 0.00 | 0.00 | 80 | 1018.5 |
| 20260830162506 | 60 | 260 | 0.0 | 0.0 | 0.00 | 0.00 | 0.00 | 81 | 1019.5 |
| 20260830160506 | 59 | 260 | 0.0 | 0.0 | 0.00 | 0.00 | 0.00 | 83 | 1019.5 |
| 20260830160006 | 58 | 260 | 0.0 | 0.0 | 0.00 | 0.00 | 0.00 | 84 | 1019.5 |
| 20260830155506 | 58 | 260 | 0.0 | 6.0 | 0.00 | 0.00 | 0.00 | 84 | 1019.5 |
| 20260830155006 | 58 | 260 | 0.0 | 7.0 | 0.00 | 0.00 | 0.00 | 85 | 1019.5 |
| 20260830154506 | 58 | 260 | 1.0 | 7.0 | 0.00 | 0.00 | 0.00 | 86 | 1019.5 |
| 20260830154006 | 57 | 260 | 2.0 | 7.0 | 0.00 | 0.00 | 0.00 | 86 | 1019.5 |
| 20260830153507 | 57 | 260 | 3.0 | 7.0 | 0.00 | 0.00 | 0.00 | 86 | 1019.5 |
| 20260830153006 | 56 | 260 | 0.0 | 0.0 | 0.00 | 0.00 | 0.00 | 86 | 1019.5 |
| 20260830152506 | 56 | 260 | 0.0 | 6.0 | 0.00 | 0.00 | 0.00 | 86 | 1019.5 |
| 20260830152006 | 56 | 260 | 2.0 | 6.0 | 0.00 | 0.00 | 0.00 | 87 | 1019.5 |
| 20260830151506 | 56 | 260 | 0.0 | 0.0 | 0.00 | 0.00 | 0.00 | 87 | 1019.5 |
| 20260830150506 | 55 | 260 | 0.0 | 0.0 | 0.00 | 0.00 | 0.00 | 88 | 1019.5 |
| 20260830150006 | 55 | 260 | 0.0 | 0.0 | 0.00 | 0.00 | 0.00 | 87 | 1019.5 |
| 20260830145507 | 55 | 260 | 0.0 | 0.0 | 0.00 | 0.00 | 0.00 | 87 | 1019.5 |
| 20260830145005 | 55 | 260 | 0.0 | 0.0 | 0.00 | 0.00 | 0.00 | 87 | 1019.5 |
| 20260830144006 | 55 | 260 | 0.0 | 0.0 | 0.00 | 0.00 | 0.00 | 87 | 1019.5 |
| 20260830143506 | 55 | 260 | 0.0 | 0.0 | 0.00 | 0.00 | 0.00 | 87 | 1019.5 |
| 20260830143006 | 55 | 260 | 0.0 | 0.0 | 0.00 | 0.00 | 0.00 | 87 | 1019.5 |
| 20260830142506 | 55 | 260 | 0.0 | 0.0 | 0.00 | 0.00 | 0.00 | 87 | 1019.5 |
| 20260830141506 | 55 | 260 | 0.0 | 0.0 | 0.00 | 0.00 | 0.00 | 86 | 1019.5 |
| 20260830141006 | 55 | 260 | 0.0 | 0.0 | 0.00 | 0.00 | 0.00 | 86 | 1019.5 |
| 20260830140506 | 55 | 260 | 0.0 | 0.0 | 0.00 | 0.00 | 0.00 | 86 | 1019.5 |
| 20260830140006 | 54 | 260 | 0.0 | 0.0 | 0.00 | 0.00 | 0.00 | 86 | 1019.5 |
| 20260830135006 | 54 | 260 | 0.0 | 0.0 | 0.00 | 0.00 | 0.00 | 86 | 1019.5 |
| 20260830134506 | 54 | 260 | 0.0 | 0.0 | 0.00 | 0.00 | 0.00 | 86 | 1019.5 |
| 20260830133505 | 54 | 260 | 0.0 | 0.0 | 0.00 | 0.00 | 0.00 | 86 | 1019.5 |
| 20260830132506 | 54 | 260 | 0.0 | 0.0 | 0.00 | 0.00 | 0.00 | 85 | 1018.5 |
| 20260830132006 | 54 | 260 | 0.0 | 0.0 | 0.00 | 0.00 | 0.00 | 85 | 1018.5 |
| 20260830131506 | 54 | 260 | 0.0 | 0.0 | 0.00 | 0.00 | 0.00 | 85 | 1018.5 |
| 20260830131005 | 54 | 260 | 0.0 | 0.0 | 0.00 | 0.00 | 0.00 | 85 | 1018.5 |
| 20260830130505 | 54 | 260 | 0.0 | 0.0 | 0.00 | 0.00 | 0.00 | 85 | 1018.5 |
| 20260830130006 | 54 | 260 | 0.0 | 0.0 | 0.00 | 0.00 | 0.00 | 85 | 1018.5 |
| 20260830125506 | 54 | 260 | 0.0 | 0.0 | 0.00 | 0.00 | 0.00 | 85 | 1019.5 |
| 20260830125006 | 54 | 260 | 0.0 | 0.0 | 0.00 | 0.00 | 0.00 | 85 | 1019.5 |
| 20260830124506 | 54 | 260 | 0.0 | 0.0 | 0.00 | 0.00 | 0.00 | 85 | 1019.5 |
| 20260830123506 | 54 | 260 | 0.0 | 0.0 | 0.00 | 0.00 | 0.00 | 85 | 1018.5 |
| 20260830123005 | 54 | 260 | 0.0 | 0.0 | 0.00 | 0.00 | 0.00 | 85 | 1018.5 |
| 20260830122506 | 54 | 260 | 0.0 | 0.0 | 0.00 | 0.00 | 0.00 | 85 | 1018.5 |
| 20260830122006 | 53 | 260 | 0.0 | 0.0 | 0.00 | 0.00 | 0.00 | 85 | 1018.5 |
| 20260830121506 | 53 | 260 | 0.0 | 0.0 | 0.00 | 0.00 | 0.00 | 85 | 1018.5 |
| 20260830115505 | 53 | 260 | 0.0 | 0.0 | 0.00 | 0.00 | 0.00 | 84 | 1018.5 |
| 20260830114006 | 52 | 260 | 0.0 | 0.0 | 0.00 | 0.00 | 0.00 | 84 | 1018.5 |
| 20260830113006 | 52 | 260 | 0.0 | 0.0 | 0.00 | 0.00 | 0.00 | 83 | 1018.5 |
| 20260830112506 | 52 | 260 | 0.0 | 0.0 | 0.00 | 0.00 | 0.00 | 83 | 1018.5 |
| 20260830112006 | 52 | 260 | 0.0 | 0.0 | 0.00 | 0.00 | 0.00 | 83 | 1018.5 |
| 20260830111506 | 52 | 260 | 0.0 | 0.0 | 0.00 | 0.00 | 0.00 | 83 | 1018.5 |
| 20260830110506 | 53 | 260 | 0.0 | 0.0 | 0.00 | 0.00 | 0.00 | 83 | 1018.5 |
| 20260830110005 | 53 | 260 | 0.0 | 0.0 | 0.00 | 0.00 | 0.00 | 82 | 1018.5 |
| 20260830105005 | 53 | 260 | 0.0 | 0.0 | 0.00 | 0.00 | 0.00 | 82 | 1018.5 |
| 20260830104006 | 53 | 260 | 0.0 | 0.0 | 0.00 | 0.00 | 0.00 | 82 | 1019.5 |
| 20260830103505 | 53 | 260 | 0.0 | 0.0 | 0.00 | 0.00 | 0.00 | 81 | 1019.5 |
| 20260830103006 | 53 | 260 | 0.0 | 0.0 | 0.00 | 0.00 | 0.00 | 81 | 1019.5 |
| 20260830102505 | 53 | 260 | 0.0 | 0.0 | 0.00 | 0.00 | 0.00 | 81 | 1018.5 |
| 20260830102005 | 53 | 260 | 0.0 | 0.0 | 0.00 | 0.00 | 0.00 | 81 | 1018.5 |
| 20260830101505 | 53 | 260 | 0.0 | 0.0 | 0.00 | 0.00 | 0.00 | 81 | 1018.5 |
| 20260830101006 | 53 | 260 | 0.0 | 0.0 | 0.00 | 0.00 | 0.00 | 80 | 1018.5 |
| 20260830100505 | 53 | 260 | 0.0 | 0.0 | 0.00 | 0.00 | 0.00 | 80 | 1018.5 |
| 20260830100006 | 53 | 260 | 0.0 | 0.0 | 0.00 | 0.00 | 0.00 | 80 | 1018.5 |
| 20260830095005 | 54 | 260 | 0.0 | 0.0 | 0.00 | 0.00 | 0.00 | 79 | 1018.5 |
| 20260830094506 | 54 | 260 | 0.0 | 0.0 | 0.00 | 0.00 | 0.00 | 79 | 1018.5 |